Meacham, OR

8:50 AM PDT on May 24, 2017 (GMT -0700)
Meacham

Weather History for KMEH - January, 2014

Change the Weather History Date:

Thursday, January 2, 2014

  Actual Average Record
Temperature  
Mean Temperature 34 °F -  
Max Temperature 41 °F 35 °F 44 °F (1998)
Min Temperature 28 °F 20 °F -6 °F (2013)
Degree Days  
Heating Degree Days 30    
Moisture  
Dew Point 29 °F    
Average Humidity 77    
Maximum Humidity 89    
Minimum Humidity 65    
Precipitation  
Precipitation 0.00 in - - ()
Sea Level Pressure  
Sea Level Pressure 30.19 in    
Wind  
Wind Speed 0 mph (North)    
Max Wind Speed 4 mph    
Max Gust Speed -    
Visibility 10 miles    
Events      
Averages and records for this station are not official NWS values.
T = Trace of Precipitation, MM = Missing Value Source: NWS Daily Summary

Daily Weather History Graph

Daily Weather History Graph

Search for Another Location

Airport or City:

Trip Planner

Search our weather history database for the weather conditions in past years. The results will help you decide how hot, cold, wet, or windy it might be!

Date:

Astronomy

Jan. 02, 2014 Rise Set
Actual Time 7:33 AM PST 4:21 PM PST
Civil Twilight 6:59 AM PST 4:55 PM PST
Nautical Twilight 6:22 AM PST 5:33 PM PST
Astronomical Twilight 5:46 AM PST 6:09 PM PST
Moon 8:12 AM PST (1/2) 6:31 PM PST (1/2)
Length of Visible Light 9h 56m
Length of Day
8h 48m
Waxing Crescent, 3% of the Moon is Illuminated
Jan 2
Waxing Crescent
Jan 7
First Quarter
Jan 15
Full
Jan 23
Last Quarter
Jan 30
New

Hourly Weather History & Observations

Time (PST) Temp. Windchill Dew Point Humidity Pressure Visibility Wind Dir Wind Speed Gust Speed Precip Events Conditions
12:56 AM 32.0 °F - 28.0 °F 85% 30.34 in 10.0 mi Calm Calm - N/A   Overcast
1:56 AM 32.0 °F - 28.0 °F 85% 30.34 in 10.0 mi Calm Calm - N/A   Overcast
2:56 AM 30.0 °F - 26.1 °F 85% 30.34 in 10.0 mi Calm Calm - N/A   Clear
3:56 AM 28.9 °F - 25.0 °F 85% 30.33 in 10.0 mi Calm Calm - N/A   Clear
4:56 AM 28.9 °F - 25.0 °F 85% 30.32 in 10.0 mi Calm Calm - N/A   Clear
5:56 AM 28.9 °F - 25.0 °F 85% 30.30 in 10.0 mi Calm Calm - N/A   Clear
6:56 AM 30.0 °F - 26.1 °F 85% 30.30 in 10.0 mi Calm Calm - N/A   Clear
7:56 AM 28.9 °F - 26.1 °F 89% 30.29 in 10.0 mi Calm Calm - N/A   Clear
8:56 AM 33.1 °F - 28.0 °F 82% 30.29 in 10.0 mi Calm Calm - N/A   Partly Cloudy
9:56 AM 35.1 °F - 28.9 °F 78% 30.28 in 10.0 mi Calm Calm - N/A   Clear
10:56 AM 39.0 °F - 30.9 °F 73% 30.26 in 10.0 mi Calm Calm - N/A   Scattered Clouds
11:56 AM 39.9 °F - 30.9 °F 70% 30.22 in 10.0 mi Calm Calm - N/A   Overcast
12:56 PM 41.0 °F - 30.0 °F 65% 30.18 in 10.0 mi Calm Calm - N/A   Mostly Cloudy
1:56 PM 41.0 °F 39.0 °F 30.9 °F 67% 30.16 in 10.0 mi Variable 3.5 mph - N/A   Overcast
2:56 PM 39.9 °F - 30.0 °F 68% 30.15 in 10.0 mi Calm Calm - N/A   Clear
3:56 PM 39.0 °F - 30.0 °F 70% 30.14 in 10.0 mi Calm Calm - N/A   Scattered Clouds
4:56 PM 37.0 °F - 30.0 °F 76% 30.13 in 10.0 mi Calm Calm - N/A   Clear
5:56 PM 37.0 °F - 28.9 °F 73% 30.10 in 10.0 mi Calm Calm - N/A   Mostly Cloudy
6:56 PM 37.9 °F - 28.9 °F 70% 30.07 in 10.0 mi Calm Calm - N/A   Mostly Cloudy
7:56 PM 37.0 °F - 30.0 °F 76% 30.05 in 10.0 mi Calm Calm - N/A   Mostly Cloudy
8:56 PM 36.0 °F - 30.0 °F 79% 30.02 in 10.0 mi Calm Calm - N/A   Scattered Clouds
9:56 PM 37.0 °F - 28.9 °F 73% 29.99 in 10.0 mi Calm Calm - N/A   Mostly Cloudy
10:56 PM 37.0 °F - 28.9 °F 73% 29.96 in 10.0 mi Calm Calm - N/A   Clear
11:56 PM 36.0 °F - 30.0 °F 79% 29.93 in 10.0 mi Calm Calm - N/A   Overcast